sat.trackr.live / text

‹ back to catalog

STARLINK-31955

NORAD 59939 · 2024-106T

PAYLOAD ACTIVE UNKNOWN

§ Identity

Operator
Country
US
Launch date
2024-06-01
Launch site
AFETR
Launch vehicle
Mass (kg)
RCS (m²)

Purposes: comms

External: N2YO · Heavens-Above · Gunter

§ Orbital elements

Epoch: 2026-05-25T00:56:48.134400Z

Period
94.27 min
Inclination
43.0002°
Eccentricity
0.0000797
Mean motion
15.27579022 rev/d
Perigee alt
482.5 km
Apogee alt
483.6 km
Semi-major
6,861.2 km
B*
-4.6285e-6
RAAN
260.9831°
Arg perigee
271.6609°
Mean anomaly
88.4151°
Rev number
11,224

§ Raw data

STARLINK-319551 59939U 24106T   26145.03944600 -.00000389  00000+0 -46285-5 0  99932 59939  43.0002 260.9831 0000797 271.6609  88.4151 15.27579022112246

JSON: /api/v1/satellites/59939 · /tle

For live sub-satellite position, see the globe view (requires WebGL).

§ Visibility from observer

Set your observer location to see the next 7 days of passes ≥ 10°. The values pass through the URL so the page stays shareable.

No JS? Fill the form by hand. The geolocation button needs JavaScript.